AISSAT 1

Last updated on Fri Dec 29 2023 00:03:02 GMT+0000 (Coordinated Universal Time)

1 36797U 10035C 23362.48748287 .00003301 00000+0 34900-3 0 9990 2 36797 98.2044 212.5874 0011095 141.8685 218.3318 14.89907766729729
UTC large
Height (km)
Speed (km/s)
/
Latitude / Longitude
Inclination (degrees)
Orbital Period (minutes)
Azimuth
Elevation
Range (km)
Doppler Factor

Next 0 passes for location: London (51.5072 / 0.1276)

Sorry there are no passes over London.
AISSAT 1